Regional Weather Roundup
Issued by NWS Cleveland, OH

Home | Current Version | Previous Version | Graphics & Text | Print | Product List | Glossary On
Versions: 1 2 3 4 5 6 7 8 9 10 11 12 13 14 15 16 17 18 19 20 21 22 23 24 25 26 27 28 29 30 31 32 33 34 35 36 37 38 39 40 41 42 43 44 45 46 47 48 49 50
000
ASUS41 KCLE 030110
RWRCLE
NATIONAL WEATHER SERVICE CLEVELAND, OH
900 PM EDT WED SEP 02 2015

NOTE: "FAIR" INDICATES FEW OR NO CLOUDS BELOW 12,000 FEET WITH NO
SIGNIFICANT WEATHER AND/OR OBSTRUCTIONS TO VISIBILITY.

OHZ001>008-015>018-024>027-034-035-043-044-030200-
   NORTHWEST OHIO

CITY           SKY/WX    TMP DP  RH WIND       PRES   REMARKS
DEFIANCE       PTCLDY    80  67  64 CALM      30.00R
FINDLAY        CLEAR     76  71  85 SW3       29.99R
TOLEDO EXPRESS CLEAR     74  73  97 CALM      29.98R
TOLEDO EXEC    CLEAR     78  71  79 CALM      29.99R
LIMA           PTCLDY    74  69  85 NE3       30.02R
$$

OHZ009>014-019>023-028>033-038-089-030200-
   NORTHEAST OHIO

CITY           SKY/WX    TMP DP  RH WIND       PRES   REMARKS
CLE-HOPKINS    MOCLDY    80  70  71 SW5       30.00R
CLE-LAKEFRONT  MOCLDY    80  71  74 W8        29.97R
CUY CO. ARPT   CLOUDY    79  72  78 SW6       29.99R
LORAIN-ELYRIA  MOCLDY    75  71  87 SW6       29.99R
ASHTABULA      CLEAR     72  70  93 CALM      30.01R
AKRON-CANTON   PTCLDY    78  67  68 W5        30.02R
WOOSTER        MOCLDY    72  69  90 CALM      30.02R
MANSFIELD      CLOUDY    75  67  76 SW3       30.03S
YOUNGSTOWN     CLOUDY    74  70  87 SW6       30.01R
$$

OHZ042-051>053-060>062-070>072-077>081-030200-
  SOUTHWEST OHIO

CITY           SKY/WX    TMP DP  RH WIND       PRES   REMARKS
CINC-COVINGTON PTCLDY    80  69  69 CALM      30.03R
CINC-LUNKEN    PTCLDY    76  69  79 CALM      30.02S
HAMILTON       CLEAR     76  68  76 E5        30.03R
DAYTON         PTCLDY    78  70  76 SW8       30.04R
WRIGHT-PAT AFB PTCLDY    76  70  83 S3        30.02R
DAYTON GENERAL CLEAR     74  67  78 S8        30.03R
WILMINGTON     PTCLDY    71  67  87 S5        30.04R
$$

OHZ036-037-039>041-045>050-054>059-063>069-073>076-082>088-030200-
  CENTRAL AND SOUTHEAST OHIO

CITY           SKY/WX    TMP DP  RH WIND       PRES   REMARKS
COLUMBUS       MOCLDY    73  69  87 CALM      30.02R
OSU AIRPORT    PTCLDY    71  67  87 NE5       30.03R
BOLTON FIELD   MOCLDY    73  72  95 CALM      30.03R
RICKENBACK AFB PTCLDY    71  69  94 S3        30.02S
NEWARK         CLEAR     72  67  84 CALM      30.02R
MARION         CLOUDY    72  69  90 S9        30.03R
LANCASTER      MOCLDY    70  67  90 CALM      30.03R
ZANESVILLE     PTCLDY    74  67  78 CALM      30.02R
NEW PHILLY     PTCLDY    74  68  81 CALM      30.01R
$$



USA.gov is the U.S. government's official web portal to all federal, state and local government web resources and services.